Year,Month,Day,Hour,Minute,Value (Times are PST for temperature in C)
2012,04,23,00,00,11.10
2012,04,23,00,01,11.00
2012,04,23,00,02,11.00
2012,04,23,00,03,11.00
2012,04,23,00,04,10.90
2012,04,23,00,05,10.90
2012,04,23,00,06,10.90
2012,04,23,00,07,10.90
2012,04,23,00,08,10.80
2012,04,23,00,09,10.80
2012,04,23,00,10,10.80
2012,04,23,00,11,10.80
2012,04,23,00,12,10.80
2012,04,23,00,13,10.80
2012,04,23,00,14,10.70
2012,04,23,00,15,10.70
2012,04,23,00,16,10.70
2012,04,23,00,17,10.70
2012,04,23,00,18,10.60
2012,04,23,00,19,10.60
2012,04,23,00,20,10.60
2012,04,23,00,21,10.60
2012,04,23,00,22,10.60
2012,04,23,00,23,10.50
2012,04,23,00,24,10.50
2012,04,23,00,25,10.50
2012,04,23,00,26,10.50
2012,04,23,00,27,10.50
2012,04,23,00,28,10.40
2012,04,23,00,29,10.40
2012,04,23,00,30,10.40
2012,04,23,00,31,10.40
2012,04,23,00,32,10.40
2012,04,23,00,33,10.40
2012,04,23,00,34,10.40
2012,04,23,00,35,10.40
2012,04,23,00,36,10.30
2012,04,23,00,37,10.30
2012,04,23,00,38,10.30
2012,04,23,00,39,10.30
2012,04,23,00,40,10.30
2012,04,23,00,41,10.30
2012,04,23,00,42,10.30
2012,04,23,00,43,10.30
2012,04,23,00,44,10.30
2012,04,23,00,45,10.30
2012,04,23,00,46,10.30
2012,04,23,00,47,10.30
2012,04,23,00,48,10.20
2012,04,23,00,49,10.20
2012,04,23,00,50,10.20
2012,04,23,00,51,10.20
2012,04,23,00,52,10.20
2012,04,23,00,53,10.20
2012,04,23,00,54,10.20
2012,04,23,00,55,10.20
2012,04,23,00,56,10.20
2012,04,23,00,57,10.20
2012,04,23,00,58,10.20
2012,04,23,00,59,10.20
2012,04,23,01,00,10.20
2012,04,23,01,01,10.20
2012,04,23,01,02,10.20
2012,04,23,01,03,10.20
2012,04,23,01,04,10.20
2012,04,23,01,05,10.20
2012,04,23,01,06,10.20
2012,04,23,01,07,10.20
2012,04,23,01,08,10.10
2012,04,23,01,09,10.10
2012,04,23,01,10,10.10
2012,04,23,01,11,10.10
2012,04,23,01,12,10.00
2012,04,23,01,13,10.00
2012,04,23,01,14,9.90
2012,04,23,01,15,9.90
2012,04,23,01,16,9.90
2012,04,23,01,17,9.90
2012,04,23,01,18,9.80
2012,04,23,01,19,9.80
2012,04,23,01,20,9.80
2012,04,23,01,21,9.80
2012,04,23,01,22,9.80
2012,04,23,01,23,9.80
2012,04,23,01,24,9.80
2012,04,23,01,25,9.80
2012,04,23,01,26,9.70
2012,04,23,01,27,9.70
2012,04,23,01,28,9.70
2012,04,23,01,29,9.70
2012,04,23,01,30,9.70
2012,04,23,01,31,9.70
2012,04,23,01,32,9.60
2012,04,23,01,33,9.60
2012,04,23,01,34,9.60
2012,04,23,01,35,9.60
2012,04,23,01,36,9.60
2012,04,23,01,37,9.60
2012,04,23,01,38,9.50
2012,04,23,01,39,9.50
2012,04,23,01,40,9.50
2012,04,23,01,41,9.40
2012,04,23,01,42,9.40
2012,04,23,01,43,9.40
2012,04,23,01,44,9.40
2012,04,23,01,45,9.40
2012,04,23,01,46,9.40
2012,04,23,01,47,9.40
2012,04,23,01,48,9.40
2012,04,23,01,49,9.40
2012,04,23,01,50,9.40
2012,04,23,01,51,9.40
2012,04,23,01,52,9.30
2012,04,23,01,53,9.30
2012,04,23,01,54,9.30
2012,04,23,01,55,9.30
2012,04,23,01,56,9.30
2012,04,23,01,57,9.30
2012,04,23,01,58,9.30
2012,04,23,01,59,9.30
2012,04,23,02,00,9.30
2012,04,23,02,01,9.30
2012,04,23,02,02,9.30
2012,04,23,02,03,9.30
2012,04,23,02,04,9.30
2012,04,23,02,05,9.20
2012,04,23,02,06,9.20
2012,04,23,02,07,9.20
2012,04,23,02,08,9.20
2012,04,23,02,09,9.20
2012,04,23,02,10,9.20
2012,04,23,02,11,9.20
2012,04,23,02,12,9.20
2012,04,23,02,13,9.20
2012,04,23,02,14,9.20
2012,04,23,02,15,9.20
2012,04,23,02,16,9.20
2012,04,23,02,17,9.20
2012,04,23,02,18,9.20
2012,04,23,02,19,9.20
2012,04,23,02,20,9.20
2012,04,23,02,21,9.10
2012,04,23,02,22,9.10
2012,04,23,02,23,9.10
2012,04,23,02,24,9.10
2012,04,23,02,25,9.00
2012,04,23,02,26,9.00
2012,04,23,02,27,9.00
2012,04,23,02,28,8.90
2012,04,23,02,29,8.90
2012,04,23,02,30,8.90
2012,04,23,02,31,8.90
2012,04,23,02,32,8.90
2012,04,23,02,33,8.90
2012,04,23,02,34,8.90
2012,04,23,02,35,8.90
2012,04,23,02,36,8.90
2012,04,23,02,37,8.90
2012,04,23,02,38,8.80
2012,04,23,02,39,8.80
2012,04,23,02,40,8.80
2012,04,23,02,41,8.70
2012,04,23,02,42,8.70
2012,04,23,02,43,8.70
2012,04,23,02,44,8.70
2012,04,23,02,45,8.70
2012,04,23,02,46,8.70
2012,04,23,02,47,8.70
2012,04,23,02,48,8.70
2012,04,23,02,49,8.70
2012,04,23,02,50,8.70
2012,04,23,02,51,8.70
2012,04,23,02,52,8.70
2012,04,23,02,53,8.70
2012,04,23,02,54,8.70
2012,04,23,02,55,8.70
2012,04,23,02,56,8.70
2012,04,23,02,57,8.70
2012,04,23,02,58,8.60
2012,04,23,02,59,8.60
2012,04,23,03,00,8.60
2012,04,23,03,01,8.60
2012,04,23,03,02,8.60
2012,04,23,03,03,8.60
2012,04,23,03,04,8.60
2012,04,23,03,05,8.60
2012,04,23,03,06,8.60
2012,04,23,03,07,8.60
2012,04,23,03,08,8.60
2012,04,23,03,09,8.60
2012,04,23,03,10,8.50
2012,04,23,03,11,8.50
2012,04,23,03,12,8.50
2012,04,23,03,13,8.40
2012,04,23,03,14,8.40
2012,04,23,03,15,8.40
2012,04,23,03,16,8.40
2012,04,23,03,17,8.40
2012,04,23,03,18,8.30
2012,04,23,03,19,8.30
2012,04,23,03,20,8.30
2012,04,23,03,21,8.30
2012,04,23,03,22,8.30
2012,04,23,03,23,8.40
2012,04,23,03,24,8.40
2012,04,23,03,25,8.40
2012,04,23,03,26,8.40
2012,04,23,03,27,8.40
2012,04,23,03,28,8.40
2012,04,23,03,29,8.40
2012,04,23,03,30,8.40
2012,04,23,03,31,8.40
2012,04,23,03,32,8.40
2012,04,23,03,33,8.40
2012,04,23,03,34,8.40
2012,04,23,03,35,8.40
2012,04,23,03,36,8.40
2012,04,23,03,37,8.30
2012,04,23,03,38,8.30
2012,04,23,03,39,8.30
2012,04,23,03,40,8.30
2012,04,23,03,41,8.30
2012,04,23,03,42,8.30
2012,04,23,03,43,8.20
2012,04,23,03,44,8.20
2012,04,23,03,45,8.20
2012,04,23,03,46,8.20
2012,04,23,03,47,8.20
2012,04,23,03,48,8.20
2012,04,23,03,49,8.20
2012,04,23,03,50,8.10
2012,04,23,03,51,8.10
2012,04,23,03,52,8.10
2012,04,23,03,53,8.10
2012,04,23,03,54,8.10
2012,04,23,03,55,8.10
2012,04,23,03,56,8.10
2012,04,23,03,57,8.10
2012,04,23,03,58,8.10
2012,04,23,03,59,8.10
2012,04,23,04,00,8.10
2012,04,23,04,01,8.10
2012,04,23,04,02,8.00
2012,04,23,04,03,8.00
2012,04,23,04,04,8.00
2012,04,23,04,05,8.00
2012,04,23,04,06,7.90
2012,04,23,04,07,7.90
2012,04,23,04,08,7.90
2012,04,23,04,09,7.90
2012,04,23,04,10,7.90
2012,04,23,04,11,7.90
2012,04,23,04,12,7.80
2012,04,23,04,13,7.80
2012,04,23,04,14,7.80
2012,04,23,04,15,7.70
2012,04,23,04,16,7.70
2012,04,23,04,17,7.70
2012,04,23,04,18,7.70
2012,04,23,04,19,7.70
2012,04,23,04,20,7.70
2012,04,23,04,21,7.70
2012,04,23,04,22,7.70
2012,04,23,04,23,7.70
2012,04,23,04,24,7.70
2012,04,23,04,25,7.70
2012,04,23,04,26,7.70
2012,04,23,04,27,7.70
2012,04,23,04,28,7.70
2012,04,23,04,29,7.70
2012,04,23,04,30,7.70
2012,04,23,04,31,7.70
2012,04,23,04,32,7.80
2012,04,23,04,33,7.80
2012,04,23,04,34,7.80
2012,04,23,04,35,7.70
2012,04,23,04,36,7.70
2012,04,23,04,37,7.70
2012,04,23,04,38,7.70
2012,04,23,04,39,7.70
2012,04,23,04,40,7.70
2012,04,23,04,41,7.70
2012,04,23,04,42,7.70
2012,04,23,04,43,7.70
2012,04,23,04,44,7.70
2012,04,23,04,45,7.70
2012,04,23,04,46,7.70
2012,04,23,04,47,7.60
2012,04,23,04,48,7.60
2012,04,23,04,49,7.60
2012,04,23,04,50,7.60
2012,04,23,04,51,7.60
2012,04,23,04,52,7.60
2012,04,23,04,53,7.60
2012,04,23,04,54,7.60
2012,04,23,04,55,7.60
2012,04,23,04,56,7.60
2012,04,23,04,57,7.70
2012,04,23,04,58,7.70
2012,04,23,04,59,7.70
2012,04,23,05,00,7.70
2012,04,23,05,01,7.70
2012,04,23,05,02,7.70
2012,04,23,05,03,7.70
2012,04,23,05,04,7.70
2012,04,23,05,05,7.70
2012,04,23,05,06,7.70
2012,04,23,05,07,7.70
2012,04,23,05,08,7.70
2012,04,23,05,09,7.70
2012,04,23,05,10,7.60
2012,04,23,05,11,7.60
2012,04,23,05,12,7.60
2012,04,23,05,13,7.60
2012,04,23,05,14,7.50
2012,04,23,05,15,7.50
2012,04,23,05,16,7.50
2012,04,23,05,17,7.50
2012,04,23,05,18,7.50
2012,04,23,05,19,7.50
2012,04,23,05,20,7.50
2012,04,23,05,21,7.50
2012,04,23,05,22,7.50
2012,04,23,05,23,7.50
2012,04,23,05,24,7.50
2012,04,23,05,25,7.50
2012,04,23,05,26,7.50
2012,04,23,05,27,7.50
2012,04,23,05,28,7.50
2012,04,23,05,29,7.50
2012,04,23,05,30,7.60
2012,04,23,05,31,7.60
2012,04,23,05,32,7.60
2012,04,23,05,33,7.60
2012,04,23,05,34,7.60
2012,04,23,05,35,7.70
2012,04,23,05,36,7.70
2012,04,23,05,37,7.70
2012,04,23,05,38,7.70
2012,04,23,05,39,7.70
2012,04,23,05,40,7.70
2012,04,23,05,41,7.70
2012,04,23,05,42,7.70
2012,04,23,05,43,7.70
2012,04,23,05,44,7.70
2012,04,23,05,45,7.70
2012,04,23,05,46,7.70
2012,04,23,05,47,7.70
2012,04,23,05,48,7.70
2012,04,23,05,49,7.70
2012,04,23,05,50,7.70
2012,04,23,05,51,7.70
2012,04,23,05,52,7.70
2012,04,23,05,53,7.70
2012,04,23,05,54,7.70
2012,04,23,05,55,7.70
2012,04,23,05,56,7.70
2012,04,23,05,57,7.70
2012,04,23,05,58,7.70
2012,04,23,05,59,7.70
2012,04,23,06,00,7.70
2012,04,23,06,01,7.70
2012,04,23,06,02,7.70
2012,04,23,06,03,7.70
2012,04,23,06,04,7.70
2012,04,23,06,05,7.70
2012,04,23,06,06,7.70
2012,04,23,06,07,7.70
2012,04,23,06,08,7.70
2012,04,23,06,09,7.70
2012,04,23,06,10,7.70
2012,04,23,06,11,7.60
2012,04,23,06,12,7.60
2012,04,23,06,13,7.60
2012,04,23,06,14,7.60
2012,04,23,06,15,7.60
2012,04,23,06,16,7.60
2012,04,23,06,17,7.50
2012,04,23,06,18,7.50
2012,04,23,06,19,7.50
2012,04,23,06,20,7.50
2012,04,23,06,21,7.50
2012,04,23,06,22,7.50
2012,04,23,06,23,7.50
2012,04,23,06,24,7.50
2012,04,23,06,25,7.50
2012,04,23,06,26,7.50
2012,04,23,06,27,7.50
2012,04,23,06,28,7.50
2012,04,23,06,29,7.50
2012,04,23,06,30,7.50
2012,04,23,06,31,7.50
2012,04,23,06,32,7.50
2012,04,23,06,33,7.50
2012,04,23,06,34,7.50
2012,04,23,06,35,7.50
2012,04,23,06,36,7.50
2012,04,23,06,37,7.50
2012,04,23,06,38,7.60
2012,04,23,06,39,7.60
2012,04,23,06,40,7.60
2012,04,23,06,41,7.60
2012,04,23,06,42,7.60
2012,04,23,06,43,7.60
2012,04,23,06,44,7.60
2012,04,23,06,45,7.70
2012,04,23,06,46,7.70
2012,04,23,06,47,7.70
2012,04,23,06,48,7.70
2012,04,23,06,49,7.70
2012,04,23,06,50,7.70
2012,04,23,06,51,7.70
2012,04,23,06,52,7.70
2012,04,23,06,53,7.70
2012,04,23,06,54,7.70
2012,04,23,06,55,7.70
2012,04,23,06,56,7.70
2012,04,23,06,57,7.80
2012,04,23,06,58,7.80
2012,04,23,06,59,7.80
2012,04,23,07,00,7.90
2012,04,23,07,01,7.90
2012,04,23,07,02,7.90
2012,04,23,07,03,7.90
2012,04,23,07,04,7.90
2012,04,23,07,05,8.00
2012,04,23,07,06,7.90
2012,04,23,07,07,7.90
2012,04,23,07,08,7.90
2012,04,23,07,09,7.90
2012,04,23,07,10,7.90
2012,04,23,07,11,7.90
2012,04,23,07,12,7.90
2012,04,23,07,13,7.90
2012,04,23,07,14,7.90
2012,04,23,07,15,8.00
2012,04,23,07,16,8.00
2012,04,23,07,17,8.00
2012,04,23,07,18,8.00
2012,04,23,07,19,8.10
2012,04,23,07,20,8.10
2012,04,23,07,21,8.10
2012,04,23,07,22,8.20
2012,04,23,07,23,8.20
2012,04,23,07,24,8.20
2012,04,23,07,25,8.30
2012,04,23,07,26,8.30
2012,04,23,07,27,8.30
2012,04,23,07,28,8.40
2012,04,23,07,29,8.40
2012,04,23,07,30,8.40
2012,04,23,07,31,8.50
2012,04,23,07,32,8.60
2012,04,23,07,33,8.60
2012,04,23,07,34,8.70
2012,04,23,07,35,8.80
2012,04,23,07,36,8.90
2012,04,23,07,37,8.90
2012,04,23,07,38,9.00
2012,04,23,07,39,9.00
2012,04,23,07,40,9.10
2012,04,23,07,41,9.20
2012,04,23,07,42,9.20
2012,04,23,07,43,9.30
2012,04,23,07,44,9.30
2012,04,23,07,45,9.30
2012,04,23,07,46,9.40
2012,04,23,07,47,9.40
2012,04,23,07,48,9.40
2012,04,23,07,49,9.40
2012,04,23,07,50,9.50
2012,04,23,07,51,9.50
2012,04,23,07,52,9.50
2012,04,23,07,53,9.60
2012,04,23,07,54,9.60
2012,04,23,07,55,9.60
2012,04,23,07,56,9.60
2012,04,23,07,57,9.70
2012,04,23,07,58,9.70
2012,04,23,07,59,9.80
2012,04,23,08,00,9.80
2012,04,23,08,01,9.80
2012,04,23,08,02,9.90
2012,04,23,08,03,9.90
2012,04,23,08,04,10.00
2012,04,23,08,05,10.00
2012,04,23,08,06,10.10
2012,04,23,08,07,10.10
2012,04,23,08,08,10.20
2012,04,23,08,09,10.20
2012,04,23,08,10,10.30
2012,04,23,08,11,10.30
2012,04,23,08,12,10.40
2012,04,23,08,13,10.50
2012,04,23,08,14,10.50
2012,04,23,08,15,10.60
2012,04,23,08,16,10.70
2012,04,23,08,17,10.70
2012,04,23,08,18,10.80
2012,04,23,08,19,10.80
2012,04,23,08,20,10.90
2012,04,23,08,21,11.00
2012,04,23,08,22,11.00
2012,04,23,08,23,11.10
2012,04,23,08,24,11.20
2012,04,23,08,25,11.30
2012,04,23,08,26,11.30
2012,04,23,08,27,11.40
2012,04,23,08,28,11.50
2012,04,23,08,29,11.60
2012,04,23,08,30,11.70
2012,04,23,08,31,11.80
2012,04,23,08,32,11.80
2012,04,23,08,33,11.90
2012,04,23,08,34,12.00
2012,04,23,08,35,12.10
2012,04,23,08,36,12.20
2012,04,23,08,37,12.30
2012,04,23,08,38,12.40
2012,04,23,08,39,12.50
2012,04,23,08,40,12.50
2012,04,23,08,41,12.60
2012,04,23,08,42,12.70
2012,04,23,08,43,12.80
2012,04,23,08,44,12.80
2012,04,23,08,45,12.90
2012,04,23,08,46,12.90
2012,04,23,08,47,13.00
2012,04,23,08,48,13.10
2012,04,23,08,49,13.20
2012,04,23,08,50,13.20
2012,04,23,08,51,13.30
2012,04,23,08,52,13.40
2012,04,23,08,53,13.40
2012,04,23,08,54,13.40
2012,04,23,08,55,13.40
2012,04,23,08,56,13.40
2012,04,23,08,57,13.40
2012,04,23,08,58,13.40
2012,04,23,08,59,13.50
2012,04,23,09,00,13.50
2012,04,23,09,01,13.50
2012,04,23,09,02,13.60
2012,04,23,09,03,13.60
2012,04,23,09,04,13.70
2012,04,23,09,05,13.70
2012,04,23,09,06,13.60
2012,04,23,09,07,13.60
2012,04,23,09,08,13.50
2012,04,23,09,09,13.50
2012,04,23,09,10,13.60
2012,04,23,09,11,13.60
2012,04,23,09,12,13.70
2012,04,23,09,13,13.70
2012,04,23,09,14,13.80
2012,04,23,09,15,13.80
2012,04,23,09,16,13.90
2012,04,23,09,17,13.90
2012,04,23,09,18,14.00
2012,04,23,09,19,14.00
2012,04,23,09,20,14.10
2012,04,23,09,21,14.10
2012,04,23,09,22,14.10
2012,04,23,09,23,14.10
2012,04,23,09,24,14.20
2012,04,23,09,25,14.20
2012,04,23,09,26,14.20
2012,04,23,09,27,14.30
2012,04,23,09,28,14.30
2012,04,23,09,29,14.40
2012,04,23,09,30,14.40
2012,04,23,09,31,14.50
2012,04,23,09,32,14.70
2012,04,23,09,33,14.90
2012,04,23,09,34,15.00
2012,04,23,09,35,15.00
2012,04,23,09,36,15.00
2012,04,23,09,37,15.00
2012,04,23,09,38,15.00
2012,04,23,09,39,15.00
2012,04,23,09,40,15.00
2012,04,23,09,41,15.00
2012,04,23,09,42,15.00
2012,04,23,09,43,15.00
2012,04,23,09,44,15.00
2012,04,23,09,45,15.00
2012,04,23,09,46,15.00
2012,04,23,09,47,15.00
2012,04,23,09,48,15.00
2012,04,23,09,49,15.00
2012,04,23,09,50,15.00
2012,04,23,09,51,15.00
2012,04,23,09,52,15.00
2012,04,23,09,53,15.00
2012,04,23,09,54,15.00
2012,04,23,09,55,15.00
2012,04,23,09,56,15.00
2012,04,23,09,57,15.00
2012,04,23,09,58,15.00
2012,04,23,09,59,15.00
2012,04,23,10,00,15.00
2012,04,23,10,01,15.20
2012,04,23,10,02,15.30
2012,04,23,10,03,15.40
2012,04,23,10,04,15.40
2012,04,23,10,05,15.40
2012,04,23,10,06,15.30
2012,04,23,10,07,15.30
2012,04,23,10,08,15.30
2012,04,23,10,09,15.30
2012,04,23,10,10,15.40
2012,04,23,10,11,15.40
2012,04,23,10,12,15.40
2012,04,23,10,13,15.50
2012,04,23,10,14,15.50
2012,04,23,10,15,15.50
2012,04,23,10,16,15.40
2012,04,23,10,17,15.40
2012,04,23,10,18,15.30
2012,04,23,10,19,15.30
2012,04,23,10,20,15.30
2012,04,23,10,21,15.30
2012,04,23,10,22,15.40
2012,04,23,10,23,15.40
2012,04,23,10,24,15.40
2012,04,23,10,25,15.40
2012,04,23,10,26,15.40
2012,04,23,10,27,15.30
2012,04,23,10,28,15.30
2012,04,23,10,29,15.20
2012,04,23,10,30,15.00
2012,04,23,10,31,15.00
2012,04,23,10,32,15.10
2012,04,23,10,33,15.20
2012,04,23,10,34,15.20
2012,04,23,10,35,15.20
2012,04,23,10,36,15.20
2012,04,23,10,37,15.10
2012,04,23,10,38,15.10
2012,04,23,10,39,15.10
2012,04,23,10,40,15.20
2012,04,23,10,41,15.30
2012,04,23,10,42,15.50
2012,04,23,10,43,15.50
2012,04,23,10,44,15.60
2012,04,23,10,45,15.60
2012,04,23,10,46,15.60
2012,04,23,10,47,15.70
2012,04,23,10,48,15.70
2012,04,23,10,49,15.70
2012,04,23,10,50,15.60
2012,04,23,10,51,15.60
2012,04,23,10,52,15.60
2012,04,23,10,53,15.60
2012,04,23,10,54,15.60
2012,04,23,10,55,15.60
2012,04,23,10,56,15.70
2012,04,23,10,57,15.80
2012,04,23,10,58,15.80
2012,04,23,10,59,15.90
2012,04,23,11,00,15.90
2012,04,23,11,01,15.90
2012,04,23,11,02,15.80
2012,04,23,11,03,15.80
2012,04,23,11,04,15.80
2012,04,23,11,05,15.80
2012,04,23,11,06,15.80
2012,04,23,11,07,15.90
2012,04,23,11,08,15.90
2012,04,23,11,09,15.90
2012,04,23,11,10,15.90
2012,04,23,11,11,15.90
2012,04,23,11,12,15.90
2012,04,23,11,13,16.00
2012,04,23,11,14,16.00
2012,04,23,11,15,16.00
2012,04,23,11,16,16.00
2012,04,23,11,17,16.00
2012,04,23,11,18,15.90
2012,04,23,11,19,15.90
2012,04,23,11,20,15.80
2012,04,23,11,21,15.80
2012,04,23,11,22,15.80
2012,04,23,11,23,15.80
2012,04,23,11,24,15.90
2012,04,23,11,25,15.80
2012,04,23,11,26,15.90
2012,04,23,11,27,15.90
2012,04,23,11,28,15.80
2012,04,23,11,29,15.80
2012,04,23,11,30,15.80
2012,04,23,11,31,15.80
2012,04,23,11,32,15.80
2012,04,23,11,33,15.90
2012,04,23,11,34,15.80
2012,04,23,11,35,15.80
2012,04,23,11,36,15.80
2012,04,23,11,37,15.80
2012,04,23,11,38,15.80
2012,04,23,11,39,15.90
2012,04,23,11,40,15.90
2012,04,23,11,41,16.00
2012,04,23,11,42,16.10
2012,04,23,11,43,16.10
2012,04,23,11,44,16.10
2012,04,23,11,45,16.20
2012,04,23,11,46,16.30
2012,04,23,11,47,16.40
2012,04,23,11,48,16.40
2012,04,23,11,49,16.40
2012,04,23,11,50,16.40
2012,04,23,11,51,16.40
2012,04,23,11,52,16.40
2012,04,23,11,53,16.40
2012,04,23,11,54,16.40
2012,04,23,11,55,16.40
2012,04,23,11,56,16.40
2012,04,23,11,57,16.50
2012,04,23,11,58,16.50
2012,04,23,11,59,16.50
2012,04,23,12,00,16.60
2012,04,23,12,01,16.70
2012,04,23,12,02,16.80
2012,04,23,12,03,16.90
2012,04,23,12,04,16.90
2012,04,23,12,05,16.90
2012,04,23,12,06,16.90
2012,04,23,12,07,16.90
2012,04,23,12,08,17.00
2012,04,23,12,09,17.10
2012,04,23,12,10,17.10
2012,04,23,12,11,17.10
2012,04,23,12,12,17.20
2012,04,23,12,13,17.20
2012,04,23,12,14,17.30
2012,04,23,12,15,17.40
2012,04,23,12,16,17.40
2012,04,23,12,17,17.50
2012,04,23,12,18,17.50
2012,04,23,12,19,17.40
2012,04,23,12,20,17.40
2012,04,23,12,21,17.40
2012,04,23,12,22,17.40
2012,04,23,12,23,17.40
2012,04,23,12,24,17.50
2012,04,23,12,25,17.60
2012,04,23,12,26,17.60
2012,04,23,12,27,17.50
2012,04,23,12,28,17.40
2012,04,23,12,29,17.50
2012,04,23,12,30,17.60
2012,04,23,12,31,17.70
2012,04,23,12,32,17.70
2012,04,23,12,33,17.80
2012,04,23,12,34,17.80
2012,04,23,12,35,17.90
2012,04,23,12,36,18.00
2012,04,23,12,37,18.00
2012,04,23,12,38,18.00
2012,04,23,12,39,17.90
2012,04,23,12,40,17.90
2012,04,23,12,41,17.90
2012,04,23,12,42,17.90
2012,04,23,12,43,18.00
2012,04,23,12,44,18.00
2012,04,23,12,45,17.90
2012,04,23,12,46,17.90
2012,04,23,12,47,18.00
2012,04,23,12,48,17.90
2012,04,23,12,49,17.90
2012,04,23,12,50,17.90
2012,04,23,12,51,17.90
2012,04,23,12,52,17.90
2012,04,23,12,53,17.90
2012,04,23,12,54,17.90
2012,04,23,12,55,18.00
2012,04,23,12,56,18.00
2012,04,23,12,57,18.00
2012,04,23,12,58,18.10
2012,04,23,12,59,18.10
2012,04,23,13,00,18.10
2012,04,23,13,01,18.10
2012,04,23,13,02,18.20
2012,04,23,13,03,18.20
2012,04,23,13,04,18.10
2012,04,23,13,05,18.00
2012,04,23,13,06,18.00
2012,04,23,13,07,17.90
2012,04,23,13,08,17.90
2012,04,23,13,09,17.90
2012,04,23,13,10,17.90
2012,04,23,13,11,17.90
2012,04,23,13,12,17.90
2012,04,23,13,13,17.90
2012,04,23,13,14,18.00
2012,04,23,13,15,18.10
2012,04,23,13,16,18.20
2012,04,23,13,17,18.20
2012,04,23,13,18,18.30
2012,04,23,13,19,18.40
2012,04,23,13,20,18.40
2012,04,23,13,21,18.50
2012,04,23,13,22,18.60
2012,04,23,13,23,18.60
2012,04,23,13,24,18.60
2012,04,23,13,25,18.50
2012,04,23,13,26,18.50
2012,04,23,13,27,18.40
2012,04,23,13,28,18.40
2012,04,23,13,29,18.50
2012,04,23,13,30,18.60
2012,04,23,13,31,18.70
2012,04,23,13,32,18.70
2012,04,23,13,33,18.70
2012,04,23,13,34,18.80
2012,04,23,13,35,18.90
2012,04,23,13,36,18.90
2012,04,23,13,37,18.90
2012,04,23,13,38,18.90
2012,04,23,13,39,18.90
2012,04,23,13,40,18.90
2012,04,23,13,41,19.00
2012,04,23,13,42,19.00
2012,04,23,13,43,18.90
2012,04,23,13,44,18.80
2012,04,23,13,45,18.80
2012,04,23,13,46,18.90
2012,04,23,13,47,19.00
2012,04,23,13,48,19.10
2012,04,23,13,49,19.20
2012,04,23,13,50,19.20
2012,04,23,13,51,19.30
2012,04,23,13,52,19.30
2012,04,23,13,53,19.30
2012,04,23,13,54,19.40
2012,04,23,13,55,19.40
2012,04,23,13,56,19.40
2012,04,23,13,57,19.30
2012,04,23,13,58,19.40
2012,04,23,13,59,19.40
2012,04,23,14,00,19.40
2012,04,23,14,01,19.50
2012,04,23,14,02,19.60
2012,04,23,14,03,19.60
2012,04,23,14,04,19.70
2012,04,23,14,05,19.70
2012,04,23,14,06,19.80
2012,04,23,14,07,19.80
2012,04,23,14,08,19.80
2012,04,23,14,09,19.80
2012,04,23,14,10,19.80
2012,04,23,14,11,19.70
2012,04,23,14,12,19.60
2012,04,23,14,13,19.50
2012,04,23,14,14,19.40
2012,04,23,14,15,19.40
2012,04,23,14,16,19.30
2012,04,23,14,17,19.30
2012,04,23,14,18,19.20
2012,04,23,14,19,19.10
2012,04,23,14,20,19.00
2012,04,23,14,21,19.00
2012,04,23,14,22,19.00
2012,04,23,14,23,18.90
2012,04,23,14,24,18.90
2012,04,23,14,25,18.90
2012,04,23,14,26,18.90
2012,04,23,14,27,18.90
2012,04,23,14,28,19.00
2012,04,23,14,29,19.10
2012,04,23,14,30,19.20
2012,04,23,14,31,19.30
2012,04,23,14,32,19.40
2012,04,23,14,33,19.40
2012,04,23,14,34,19.30
2012,04,23,14,35,19.30
2012,04,23,14,36,19.30
2012,04,23,14,37,19.30
2012,04,23,14,38,19.30
2012,04,23,14,39,19.30
2012,04,23,14,40,19.20
2012,04,23,14,41,19.20
2012,04,23,14,42,19.20
2012,04,23,14,43,19.10
2012,04,23,14,44,19.00
2012,04,23,14,45,18.90
2012,04,23,14,46,18.90
2012,04,23,14,47,18.90
2012,04,23,14,48,18.80
2012,04,23,14,49,18.90
2012,04,23,14,50,18.90
2012,04,23,14,51,19.00
2012,04,23,14,52,19.00
2012,04,23,14,53,19.00
2012,04,23,14,54,18.90
2012,04,23,14,55,18.80
2012,04,23,14,56,18.70
2012,04,23,14,57,18.50
2012,04,23,14,58,18.40
2012,04,23,14,59,18.30
2012,04,23,15,00,18.30
2012,04,23,15,01,18.30
2012,04,23,15,02,18.20
2012,04,23,15,03,18.20
2012,04,23,15,04,18.10
2012,04,23,15,05,18.10
2012,04,23,15,06,18.20
2012,04,23,15,07,18.20
2012,04,23,15,08,18.20
2012,04,23,15,09,18.30
2012,04,23,15,10,18.30
2012,04,23,15,11,18.30
2012,04,23,15,12,18.30
2012,04,23,15,13,18.30
2012,04,23,15,14,18.30
2012,04,23,15,15,18.30
2012,04,23,15,16,18.40
2012,04,23,15,17,18.40
2012,04,23,15,18,18.40
2012,04,23,15,19,18.50
2012,04,23,15,20,18.50
2012,04,23,15,21,18.50
2012,04,23,15,22,18.50
2012,04,23,15,23,18.50
2012,04,23,15,24,18.50
2012,04,23,15,25,18.40
2012,04,23,15,26,18.30
2012,04,23,15,27,18.30
2012,04,23,15,28,18.30
2012,04,23,15,29,18.30
2012,04,23,15,30,18.30
2012,04,23,15,31,18.30
2012,04,23,15,32,18.40
2012,04,23,15,33,18.40
2012,04,23,15,34,18.40
2012,04,23,15,35,18.40
2012,04,23,15,36,18.50
2012,04,23,15,37,18.60
2012,04,23,15,38,18.50
2012,04,23,15,39,18.40
2012,04,23,15,40,18.40
2012,04,23,15,41,18.40
2012,04,23,15,42,18.40
2012,04,23,15,43,18.40
2012,04,23,15,44,18.50
2012,04,23,15,45,18.50
2012,04,23,15,46,18.40
2012,04,23,15,47,18.40
2012,04,23,15,48,18.40
2012,04,23,15,49,18.40
2012,04,23,15,50,18.50
2012,04,23,15,51,18.50
2012,04,23,15,52,18.50
2012,04,23,15,53,18.50
2012,04,23,15,54,18.50
2012,04,23,15,55,18.60
2012,04,23,15,56,18.60
2012,04,23,15,57,18.60
2012,04,23,15,58,18.60
2012,04,23,15,59,18.50
2012,04,23,16,00,18.50
2012,04,23,16,01,18.40
2012,04,23,16,02,18.30
2012,04,23,16,03,18.20
2012,04,23,16,04,18.10
2012,04,23,16,05,18.10
2012,04,23,16,06,18.10
2012,04,23,16,07,18.10
2012,04,23,16,08,18.20
2012,04,23,16,09,18.20
2012,04,23,16,10,18.20
2012,04,23,16,11,18.20
2012,04,23,16,12,18.10
2012,04,23,16,13,18.10
2012,04,23,16,14,18.10
2012,04,23,16,15,18.20
2012,04,23,16,16,18.20
2012,04,23,16,17,18.20
2012,04,23,16,18,18.20
2012,04,23,16,19,18.20
2012,04,23,16,20,18.20
2012,04,23,16,21,18.20
2012,04,23,16,22,18.20
2012,04,23,16,23,18.20
2012,04,23,16,24,18.30
2012,04,23,16,25,18.40
2012,04,23,16,26,18.40
2012,04,23,16,27,18.40
2012,04,23,16,28,18.30
2012,04,23,16,29,18.20
2012,04,23,16,30,18.10
2012,04,23,16,31,18.00
2012,04,23,16,32,17.90
2012,04,23,16,33,17.90
2012,04,23,16,34,17.90
2012,04,23,16,35,17.80
2012,04,23,16,36,17.80
2012,04,23,16,37,17.80
2012,04,23,16,38,17.80
2012,04,23,16,39,17.70
2012,04,23,16,40,17.70
2012,04,23,16,41,17.70
2012,04,23,16,42,17.60
2012,04,23,16,43,17.70
2012,04,23,16,44,17.70
2012,04,23,16,45,17.70
2012,04,23,16,46,17.70
2012,04,23,16,47,17.70
2012,04,23,16,48,17.70
2012,04,23,16,49,17.80
2012,04,23,16,50,17.80
2012,04,23,16,51,17.70
2012,04,23,16,52,17.60
2012,04,23,16,53,17.50
2012,04,23,16,54,17.50
2012,04,23,16,55,17.50
2012,04,23,16,56,17.50
2012,04,23,16,57,17.60
2012,04,23,16,58,17.60
2012,04,23,16,59,17.50
2012,04,23,17,00,17.50
2012,04,23,17,01,17.40
2012,04,23,17,02,17.40
2012,04,23,17,03,17.40
2012,04,23,17,04,17.40
2012,04,23,17,05,17.40
2012,04,23,17,06,17.40
2012,04,23,17,07,17.40
2012,04,23,17,08,17.40
2012,04,23,17,09,17.50
2012,04,23,17,10,17.40
2012,04,23,17,11,17.40
2012,04,23,17,12,17.30
2012,04,23,17,13,17.20
2012,04,23,17,14,17.20
2012,04,23,17,15,17.10
2012,04,23,17,16,17.10
2012,04,23,17,17,17.10
2012,04,23,17,18,17.10
2012,04,23,17,19,17.00
2012,04,23,17,20,17.00
2012,04,23,17,21,17.00
2012,04,23,17,22,16.90
2012,04,23,17,23,16.90
2012,04,23,17,24,16.90
2012,04,23,17,25,17.00
2012,04,23,17,26,16.90
2012,04,23,17,27,16.90
2012,04,23,17,28,16.90
2012,04,23,17,29,16.90
2012,04,23,17,30,16.90
2012,04,23,17,31,16.90
2012,04,23,17,32,16.90
2012,04,23,17,33,16.90
2012,04,23,17,34,16.90
2012,04,23,17,35,16.90
2012,04,23,17,36,16.90
2012,04,23,17,37,17.00